timestamp,wind_dir_avg,wind_spd_avg,wind_spd_max_dir,wind_spd_gust,battery_voltage,lat,long
2022-10-05 00:04:00+00:00,245.0,10.97,243.0,12.67,12.57,47.59359,-54.27349
2022-10-05 00:14:00+00:00,246.0,10.57,243.0,11.78,12.49,47.59359,-54.27349
2022-10-05 00:24:00+00:00,246.0,9.24,245.0,10.93,12.49,47.59359,-54.27349
2022-10-05 00:34:00+00:00,250.0,9.84,252.0,11.1,12.49,47.59359,-54.27349
2022-10-05 00:44:00+00:00,246.0,9.41,251.0,10.84,12.49,47.59359,-54.27349
2022-10-05 00:54:00+00:00,243.0,9.47,244.0,10.72,12.49,47.59359,-54.27349
2022-10-05 01:04:00+00:00,250.0,7.33,252.0,9.75,12.49,47.59359,-54.27349
2022-10-05 01:14:01+00:00,257.0,8.94,258.0,10.51,12.49,47.59359,-54.27349
2022-10-05 01:24:01+00:00,252.0,8.02,254.0,9.65,12.49,47.59359,-54.27349
2022-10-05 01:34:01+00:00,246.0,6.93,241.0,8.3,12.49,47.59359,-54.27349
2022-10-05 01:44:01+00:00,251.0,6.15,257.0,7.16,12.49,47.59359,-54.27349
2022-10-05 01:54:01+00:00,240.0,8.21,236.0,10.38,12.49,47.59359,-54.27349
2022-10-05 02:04:01+00:00,249.0,8.25,254.0,9.75,12.49,47.59359,-54.27349
2022-10-05 02:14:01+00:00,248.0,9.83,249.0,11.07,12.49,47.59359,-54.27349
2022-10-05 02:24:01+00:00,244.0,10.27,239.0,11.82,12.49,47.59359,-54.27349
2022-10-05 02:34:01+00:00,251.0,9.86,250.0,11.24,12.49,47.59359,-54.27349
2022-10-05 02:44:01+00:00,244.0,10.04,248.0,11.53,12.49,47.59359,-54.27349
2022-10-05 02:54:01+00:00,250.0,9.86,252.0,11.44,12.49,47.59359,-54.27349
2022-10-05 03:04:01+00:00,246.0,9.66,250.0,10.94,12.49,47.59359,-54.27349
2022-10-05 03:14:01+00:00,240.0,9.42,240.0,11.28,12.49,47.59359,-54.27349
2022-10-05 03:24:01+00:00,240.0,8.45,250.0,9.67,12.49,47.59359,-54.27349
2022-10-05 03:34:01+00:00,245.0,8.89,249.0,9.74,12.49,47.59359,-54.27349
2022-10-05 03:44:01+00:00,239.0,9.76,244.0,10.73,12.49,47.59359,-54.27349
2022-10-05 03:54:01+00:00,235.0,9.04,235.0,10.53,12.49,47.59359,-54.27349
2022-10-05 04:04:01+00:00,237.0,7.45,242.0,9.12,12.49,47.59359,-54.27349
2022-10-05 04:14:00+00:00,240.0,9.74,241.0,11.8,12.41,47.59359,-54.27349
2022-10-05 04:24:00+00:00,248.0,9.41,246.0,10.49,12.41,47.59359,-54.27349
2022-10-05 04:34:00+00:00,233.0,7.99,241.0,9.1,12.41,47.59359,-54.27349
2022-10-05 04:44:00+00:00,234.0,7.87,234.0,8.85,12.41,47.59359,-54.27349
2022-10-05 04:54:00+00:00,237.0,7.83,245.0,8.8,12.41,47.59359,-54.27349
2022-10-05 05:04:00+00:00,235.0,7.21,236.0,8.28,12.41,47.59359,-54.27349
2022-10-05 05:14:00+00:00,232.0,7.06,231.0,8.11,12.41,47.59359,-54.27349
2022-10-05 05:24:00+00:00,235.0,7.8,235.0,8.86,12.41,47.59359,-54.27349
2022-10-05 05:34:00+00:00,242.0,6.88,241.0,7.95,12.41,47.59359,-54.27349
2022-10-05 05:44:00+00:00,249.0,7.4,251.0,8.5,12.41,47.59359,-54.27349
2022-10-05 05:54:00+00:00,238.0,7.06,235.0,7.95,12.41,47.59359,-54.27349
2022-10-05 06:04:00+00:00,241.0,7.08,238.0,8.81,12.41,47.59359,-54.27349
2022-10-05 06:14:01+00:00,240.0,6.96,238.0,7.97,12.41,47.59359,-54.27349
2022-10-05 06:24:01+00:00,240.0,7.52,244.0,9.16,12.41,47.59359,-54.27349
2022-10-05 06:34:01+00:00,233.0,7.57,240.0,8.87,12.41,47.59359,-54.27349
2022-10-05 06:44:01+00:00,231.0,7.64,229.0,8.77,12.41,47.59359,-54.27349
2022-10-05 06:54:01+00:00,227.0,6.9,226.0,7.91,12.41,47.59359,-54.27349
2022-10-05 07:04:01+00:00,231.0,6.91,230.0,8.43,12.41,47.59359,-54.27349
2022-10-05 07:14:01+00:00,236.0,8.21,236.0,9.67,12.41,47.59359,-54.27349
2022-10-05 07:24:01+00:00,228.0,7.57,235.0,8.73,12.41,47.59359,-54.27349
2022-10-05 07:34:01+00:00,233.0,7.24,235.0,8.42,12.41,47.59359,-54.27349
2022-10-05 07:44:01+00:00,237.0,7.14,237.0,8.2,12.41,47.59359,-54.27349
2022-10-05 07:54:01+00:00,229.0,7.47,230.0,8.89,12.41,47.59359,-54.27349
2022-10-05 08:04:01+00:00,230.0,6.82,237.0,8.92,12.41,47.59359,-54.27349
2022-10-05 08:14:01+00:00,231.0,6.83,235.0,8.69,12.33,47.59359,-54.27349
2022-10-05 08:24:01+00:00,231.0,6.68,226.0,7.78,12.33,47.59359,-54.27349
2022-10-05 08:34:01+00:00,234.0,6.74,235.0,7.74,12.33,47.59359,-54.27349
2022-10-05 08:44:01+00:00,233.0,6.82,240.0,7.68,12.33,47.59359,-54.27349
2022-10-05 08:54:01+00:00,239.0,7.69,236.0,8.72,12.33,47.59359,-54.27349
2022-10-05 09:04:01+00:00,232.0,7.32,236.0,10.04,12.33,47.59359,-54.27349
2022-10-05 09:14:00+00:00,237.0,7.45,236.0,8.58,12.33,47.59359,-54.27349
2022-10-05 09:24:00+00:00,235.0,7.9,237.0,9.08,12.33,47.59359,-54.27349
2022-10-05 09:34:00+00:00,236.0,8.78,238.0,9.86,12.33,47.59359,-54.27349
2022-10-05 09:44:00+00:00,240.0,8.17,248.0,9.85,12.33,47.59359,-54.27349
2022-10-05 09:54:00+00:00,235.0,7.01,244.0,8.56,12.33,47.59359,-54.27349
2022-10-05 10:04:00+00:00,239.0,8.09,242.0,9.2,12.33,47.59359,-54.27349
2022-10-05 10:14:00+00:00,241.0,7.66,253.0,8.98,12.73,47.59359,-54.27349
2022-10-05 10:24:00+00:00,250.0,9.34,254.0,10.22,12.73,47.59359,-54.27349
2022-10-05 10:34:00+00:00,249.0,9.19,251.0,10.87,12.73,47.59359,-54.27349
2022-10-05 10:44:00+00:00,250.0,10.01,252.0,11.92,12.73,47.59359,-54.27349
2022-10-05 10:54:00+00:00,256.0,9.26,254.0,10.5,12.73,47.59359,-54.27349
2022-10-05 11:04:00+00:00,250.0,8.37,249.0,9.14,12.73,47.59359,-54.27349
2022-10-05 11:14:00+00:00,250.0,9.06,248.0,10.22,14.0,47.59359,-54.27349
2022-10-05 11:24:00+00:00,253.0,8.25,256.0,9.18,14.0,47.59359,-54.27349
2022-10-05 11:34:00+00:00,249.0,7.74,250.0,8.87,14.0,47.59359,-54.27349
2022-10-05 11:44:00+00:00,256.0,7.65,257.0,9.01,14.0,47.59359,-54.27349
2022-10-05 11:54:00+00:00,247.0,8.05,244.0,9.18,14.0,47.59359,-54.27349
2022-10-05 12:04:00+00:00,261.0,8.49,258.0,9.28,14.0,47.59359,-54.27349
2022-10-05 12:14:00+00:00,253.0,8.34,253.0,9.18,14.32,47.59359,-54.27349
2022-10-05 12:24:00+00:00,258.0,7.5,264.0,9.28,14.32,47.59359,-54.27349
2022-10-05 12:34:00+00:00,253.0,7.2,247.0,8.2,14.32,47.59359,-54.27349
2022-10-05 12:44:00+00:00,267.0,6.03,261.0,7.44,14.32,47.59359,-54.27349
2022-10-05 12:54:00+00:00,245.0,6.26,243.0,7.07,14.32,47.59359,-54.27349
2022-10-05 13:04:00+00:00,238.0,5.45,233.0,6.79,14.32,47.59359,-54.27349
2022-10-05 13:14:01+00:00,226.0,5.58,232.0,6.58,14.32,47.59359,-54.27349
2022-10-05 13:24:01+00:00,214.0,6.26,208.0,8.02,14.32,47.59359,-54.27349
2022-10-05 13:34:01+00:00,215.0,5.39,219.0,6.21,14.32,47.59359,-54.27349
2022-10-05 13:44:01+00:00,214.0,6.4,213.0,6.86,14.32,47.59359,-54.27349
2022-10-05 13:54:01+00:00,215.0,6.14,216.0,6.68,14.32,47.59359,-54.27349
2022-10-05 14:04:01+00:00,207.0,6.09,207.0,6.63,14.32,47.59359,-54.27349
2022-10-05 14:14:01+00:00,203.0,6.63,197.0,7.11,14.4,47.59359,-54.27349
2022-10-05 14:24:01+00:00,205.0,7.16,212.0,7.83,14.4,47.59359,-54.27349
2022-10-05 14:34:01+00:00,207.0,6.75,208.0,7.24,14.4,47.59359,-54.27349
2022-10-05 14:44:01+00:00,206.0,7.17,206.0,7.86,14.4,47.59359,-54.27349
2022-10-05 14:54:01+00:00,204.0,6.71,202.0,7.27,14.4,47.59359,-54.27349
2022-10-05 15:04:01+00:00,201.0,6.98,197.0,7.89,14.4,47.59359,-54.27349
2022-10-05 15:14:00+00:00,196.0,7.04,196.0,8.02,14.32,47.59359,-54.27349
2022-10-05 15:24:00+00:00,200.0,7.5,199.0,8.11,14.32,47.59359,-54.27349
2022-10-05 15:34:00+00:00,201.0,8.94,205.0,9.54,14.32,47.59359,-54.27349
2022-10-05 15:44:00+00:00,198.0,9.33,198.0,10.49,14.32,47.59359,-54.27349
2022-10-05 15:54:00+00:00,202.0,10.06,206.0,10.97,14.32,47.59359,-54.27349
2022-10-05 16:04:00+00:00,201.0,10.12,206.0,10.87,14.32,47.59359,-54.27349
2022-10-05 16:14:01+00:00,198.0,10.83,199.0,11.65,14.08,47.59359,-54.27349
2022-10-05 16:24:01+00:00,204.0,10.71,207.0,11.65,14.08,47.59359,-54.27349
2022-10-05 16:34:01+00:00,202.0,9.06,204.0,10.22,14.08,47.59359,-54.27349
2022-10-05 16:44:01+00:00,205.0,9.58,205.0,10.72,14.08,47.59359,-54.27349
2022-10-05 16:54:01+00:00,213.0,10.54,220.0,11.85,14.08,47.59359,-54.27349
2022-10-05 17:04:01+00:00,214.0,10.37,217.0,11.45,14.08,47.59359,-54.27349
2022-10-05 17:14:00+00:00,210.0,9.97,216.0,11.79,14.32,47.59359,-54.27349
2022-10-05 17:24:00+00:00,211.0,8.95,218.0,10.01,14.32,47.59359,-54.27349
2022-10-05 17:34:00+00:00,208.0,6.95,208.0,7.88,14.32,47.59359,-54.27349
2022-10-05 17:44:00+00:00,209.0,6.88,206.0,8.19,14.32,47.59359,-54.27349
2022-10-05 17:54:00+00:00,210.0,7.69,211.0,8.37,14.32,47.59359,-54.27349
2022-10-05 18:04:00+00:00,206.0,8.08,210.0,9.01,14.32,47.59359,-54.27349
2022-10-05 18:14:00+00:00,212.0,10.37,222.0,11.54,14.32,47.59359,-54.27349
2022-10-05 18:24:00+00:00,207.0,8.92,216.0,10.71,14.32,47.59359,-54.27349
2022-10-05 18:34:00+00:00,218.0,10.98,224.0,12.71,14.32,47.59359,-54.27349
2022-10-05 18:44:00+00:00,214.0,9.66,219.0,11.12,14.32,47.59359,-54.27349
2022-10-05 18:54:00+00:00,215.0,10.4,224.0,12.62,14.32,47.59359,-54.27349
2022-10-05 19:04:00+00:00,207.0,9.44,211.0,11.05,14.32,47.59359,-54.27349
2022-10-05 19:14:00+00:00,211.0,9.08,224.0,10.99,13.84,47.59359,-54.27349
2022-10-05 19:24:00+00:00,212.0,8.35,225.0,10.28,13.84,47.59359,-54.27349
2022-10-05 19:34:00+00:00,215.0,9.67,222.0,11.35,13.84,47.59359,-54.27349
2022-10-05 19:44:00+00:00,225.0,10.26,231.0,11.99,13.84,47.59359,-54.27349
2022-10-05 19:54:00+00:00,218.0,9.39,226.0,11.6,13.84,47.59359,-54.27349
2022-10-05 20:04:00+00:00,222.0,9.82,232.0,12.06,13.84,47.59359,-54.27349
2022-10-05 20:14:00+00:00,223.0,10.32,230.0,12.0,13.84,47.59359,-54.27349
2022-10-05 20:24:00+00:00,219.0,9.16,231.0,11.5,13.84,47.59359,-54.27349
2022-10-05 20:34:00+00:00,209.0,7.53,203.0,9.46,13.84,47.59359,-54.27349
2022-10-05 20:44:00+00:00,207.0,6.11,207.0,6.76,13.84,47.59359,-54.27349
2022-10-05 20:54:00+00:00,212.0,7.27,212.0,7.93,13.84,47.59359,-54.27349
2022-10-05 21:04:00+00:00,216.0,7.87,227.0,10.15,13.84,47.59359,-54.27349
2022-10-05 21:14:00+00:00,218.0,9.1,229.0,10.71,13.13,47.59359,-54.27349
2022-10-05 21:24:00+00:00,223.0,8.96,229.0,11.11,13.13,47.59359,-54.27349
2022-10-05 21:34:00+00:00,214.0,8.32,230.0,10.13,13.13,47.59359,-54.27349
2022-10-05 21:44:00+00:00,217.0,8.75,231.0,11.76,13.13,47.59359,-54.27349
2022-10-05 21:54:00+00:00,218.0,9.27,225.0,10.76,13.13,47.59359,-54.27349
2022-10-05 22:04:00+00:00,210.0,6.48,211.0,7.06,13.13,47.59359,-54.27349
2022-10-05 22:14:00+00:00,216.0,5.76,216.0,6.44,12.65,47.59359,-54.27349
2022-10-05 22:24:00+00:00,218.0,5.0,219.0,6.0,12.65,47.59359,-54.27349
2022-10-05 22:34:00+00:00,218.0,5.12,222.0,5.86,12.65,47.59359,-54.27349
2022-10-05 22:44:00+00:00,229.0,5.02,229.0,5.9,12.65,47.59359,-54.27349
2022-10-05 22:54:00+00:00,225.0,6.08,222.0,6.51,12.65,47.59359,-54.27349
2022-10-05 23:04:00+00:00,229.0,5.27,235.0,5.95,12.65,47.59359,-54.27349
2022-10-05 23:14:00+00:00,231.0,4.93,229.0,5.5,12.57,47.59359,-54.27349
2022-10-05 23:24:00+00:00,239.0,4.95,235.0,5.32,12.57,47.59359,-54.27349
2022-10-05 23:34:00+00:00,244.0,4.83,249.0,5.26,12.57,47.59359,-54.27349
2022-10-05 23:44:00+00:00,265.0,4.85,261.0,5.19,12.57,47.59359,-54.27349
2022-10-05 23:54:00+00:00,266.0,4.94,267.0,5.25,12.57,47.59359,-54.27349
